Time,TemperatureF,DewpointF,PressureIn,WindDirection,WindDirectionDegrees,WindSpeedMPH,WindSpeedGustMPH,Humidity,HourlyPrecipIn,Conditions,Clouds,dailyrainin,SolarRadiationWatts/m^2,SoftwareType,DateUTC
2013-03-03 00:00:00,26.7,21.9,29.65,NW,320,2.3,2.3,82,0.00,CLR,,0.03,0.0,WeatherDisplay:10.37,2013-03-03 05:00:00,
2013-03-03 00:05:00,26.7,22.2,29.65,NW,318,4.6,4.6,83,0.00,RA,,0.00,0.0,WeatherDisplay:10.37,2013-03-03 05:05:00,
2013-03-03 00:10:00,26.7,22.2,29.65,WNW,303,3.5,3.5,83,0.00,CLR,,0.00,0.0,WeatherDisplay:10.37,2013-03-03 05:10:00,
2013-03-03 00:15:00,26.7,22.2,29.65,WNW,294,6.9,6.9,83,0.00,CLR,,0.00,0.0,WeatherDisplay:10.37,2013-03-03 05:15:00,
2013-03-03 00:20:00,26.6,22.1,29.65,NW,325,3.5,3.5,83,0.00,CLR,,0.00,0.0,WeatherDisplay:10.37,2013-03-03 05:20:00,
2013-03-03 00:25:00,26.6,22.1,29.65,WNW,290,2.3,2.3,83,0.00,CLR,,0.00,0.0,WeatherDisplay:10.37,2013-03-03 05:25:00,
2013-03-03 00:30:00,26.6,22.1,29.65,North,350,3.5,3.5,83,0.00,CLR,,0.00,0.0,WeatherDisplay:10.37,2013-03-03 05:30:00,
2013-03-03 00:35:00,26.5,22.0,29.65,NW,309,3.5,3.5,83,0.00,CLR,,0.00,0.0,WeatherDisplay:10.37,2013-03-03 05:35:00,
2013-03-03 00:40:00,26.5,22.3,29.65,NW,304,2.3,2.3,84,0.00,CLR,,0.00,0.0,WeatherDisplay:10.37,2013-03-03 05:40:00,
2013-03-03 00:45:00,26.4,22.2,29.65,NNW,329,4.6,4.6,84,0.00,CLR,,0.00,0.0,WeatherDisplay:10.37,2013-03-03 05:45:00,
2013-03-03 00:50:00,26.4,22.2,29.65,West,265,3.5,3.5,84,0.00,CLR,,0.00,0.0,WeatherDisplay:10.37,2013-03-03 05:50:00,
2013-03-03 00:55:00,26.3,22.1,29.65,North,349,4.6,4.6,84,0.00,CLR,,0.00,0.0,WeatherDisplay:10.37,2013-03-03 05:55:00,
2013-03-03 01:00:00,26.3,22.1,29.65,WNW,300,3.0,3.0,84,0.00,CLR,,0.00,0.0,WeatherDisplay:10.37,2013-03-03 06:00:00,
2013-03-03 01:05:00,26.3,22.1,29.65,WNW,303,2.3,2.3,84,0.00,CLR,,0.00,0.0,WeatherDisplay:10.37,2013-03-03 06:05:00,
2013-03-03 01:10:00,26.3,22.1,29.65,NNW,331,3.5,3.5,84,0.00,CLR,,0.00,0.0,WeatherDisplay:10.37,2013-03-03 06:10:00,
2013-03-03 01:15:00,26.2,22.0,29.65,North,349,5.8,5.8,84,0.00,CLR,,0.00,0.0,WeatherDisplay:10.37,2013-03-03 06:15:00,
2013-03-03 01:20:00,26.2,22.0,29.65,WNW,294,4.6,4.6,84,0.00,CLR,,0.00,0.0,WeatherDisplay:10.37,2013-03-03 06:20:00,
2013-03-03 01:25:00,26.1,21.9,29.65,NW,321,3.5,3.5,84,0.00,CLR,,0.00,0.0,WeatherDisplay:10.37,2013-03-03 06:25:00,
2013-03-03 01:30:00,26.1,21.9,29.65,NNW,331,0.0,0.1,84,0.00,CLR,,0.00,0.0,WeatherDisplay:10.37,2013-03-03 06:30:00,
2013-03-03 01:35:00,26.0,21.8,29.65,NNW,329,3.5,3.5,84,0.00,CLR,,0.00,0.0,WeatherDisplay:10.37,2013-03-03 06:35:00,
2013-03-03 01:40:00,26.0,21.8,29.65,NW,325,2.3,0.0,84,0.00,CLR,,0.00,0.0,WeatherDisplay:10.37,2013-03-03 06:40:00,
2013-03-03 01:45:00,25.9,21.7,29.65,WNW,292,2.3,2.3,84,0.00,CLR,,0.00,0.0,WeatherDisplay:10.37,2013-03-03 06:45:00,
2013-03-03 01:50:00,25.9,21.7,29.65,NW,322,9.2,9.2,84,0.00,CLR,,0.00,0.0,WeatherDisplay:10.37,2013-03-03 06:50:00,
2013-03-03 01:55:00,25.9,21.7,29.65,NW,306,4.6,4.6,84,0.00,CLR,,0.00,0.0,WeatherDisplay:10.37,2013-03-03 06:55:00,
2013-03-03 02:00:00,25.8,21.6,29.65,North,355,2.0,2.0,84,0.00,CLR,,0.00,0.0,WeatherDisplay:10.37,2013-03-03 07:00:00,
2013-03-03 02:05:00,25.8,21.6,29.64,NW,317,4.6,4.6,84,0.00,CLR,,0.00,0.0,WeatherDisplay:10.37,2013-03-03 07:05:00,
2013-03-03 02:10:00,25.7,21.5,29.64,NW,324,3.5,3.5,84,0.00,CLR,,0.00,0.0,WeatherDisplay:10.37,2013-03-03 07:10:00,
2013-03-03 02:15:00,25.7,21.5,29.64,NNW,346,3.5,3.5,84,0.00,CLR,,0.00,0.0,WeatherDisplay:10.37,2013-03-03 07:15:00,
2013-03-03 02:20:00,25.6,21.4,29.64,WNW,298,8.1,8.1,84,0.00,CLR,,0.00,0.0,WeatherDisplay:10.37,2013-03-03 07:20:00,
2013-03-03 02:25:00,25.6,21.4,29.64,NW,322,4.6,4.6,84,0.00,CLR,,0.00,0.0,WeatherDisplay:10.37,2013-03-03 07:25:00,
2013-03-03 02:30:00,25.6,21.4,29.64,NW,325,3.5,3.5,84,0.00,CLR,,0.00,0.0,WeatherDisplay:10.37,2013-03-03 07:30:00,
2013-03-03 02:35:00,25.5,21.3,29.64,NW,325,4.6,4.6,84,0.00,CLR,,0.00,0.0,WeatherDisplay:10.37,2013-03-03 07:35:00,
2013-03-03 02:40:00,25.5,21.3,29.64,NNW,341,3.5,3.5,84,0.00,CLR,,0.00,0.0,WeatherDisplay:10.37,2013-03-03 07:40:00,
2013-03-03 02:45:00,25.5,21.3,29.64,NW,321,3.5,3.5,84,0.00,CLR,,0.00,0.0,WeatherDisplay:10.37,2013-03-03 07:45:00,
2013-03-03 02:50:00,25.4,21.2,29.63,NNW,342,4.6,4.6,84,0.00,CLR,,0.00,0.0,WeatherDisplay:10.37,2013-03-03 07:50:00,
2013-03-03 02:55:00,25.4,21.2,29.63,NW,326,4.6,4.6,84,0.00,CLR,,0.00,0.0,WeatherDisplay:10.37,2013-03-03 07:55:00,
2013-03-03 03:00:00,25.4,21.2,29.63,WNW,302,0.0,0.0,84,0.00,CLR,,0.00,0.0,WeatherDisplay:10.37,2013-03-03 08:00:00,
2013-03-03 03:05:00,25.4,21.2,29.63,North,355,3.5,3.5,84,0.00,CLR,,0.00,0.0,WeatherDisplay:10.37,2013-03-03 08:05:00,
2013-03-03 03:10:00,25.3,21.1,29.63,North,355,0.0,0.0,84,0.00,CLR,,0.00,0.0,WeatherDisplay:10.37,2013-03-03 08:10:00,
2013-03-03 03:15:00,25.3,21.1,29.63,NW,307,6.9,6.9,84,0.00,CLR,,0.00,0.0,WeatherDisplay:10.37,2013-03-03 08:15:00,
2013-03-03 03:20:00,25.3,21.1,29.63,North,360,5.8,5.8,84,0.00,CLR,,0.00,0.0,WeatherDisplay:10.37,2013-03-03 08:20:00,
2013-03-03 03:25:00,25.2,21.0,29.63,West,266,2.0,2.0,84,0.00,CLR,,0.00,0.0,WeatherDisplay:10.37,2013-03-03 08:25:00,
2013-03-03 03:30:00,25.2,21.0,29.63,North,355,4.6,4.6,84,0.00,CLR,,0.00,0.0,WeatherDisplay:10.37,2013-03-03 08:30:00,
2013-03-03 03:35:00,25.2,21.0,29.63,NW,323,1.0,0.0,84,0.00,CLR,,0.00,0.0,WeatherDisplay:10.37,2013-03-03 08:35:00,
2013-03-03 03:40:00,25.2,21.0,29.63,North,5,7.0,7.0,84,0.00,CLR,,0.00,0.0,WeatherDisplay:10.37,2013-03-03 08:40:00,
2013-03-03 03:45:00,25.2,21.0,29.63,East,80,1.1,1.1,84,0.00,CLR,,0.00,0.0,WeatherDisplay:10.37,2013-03-03 08:45:00,
2013-03-03 03:50:00,25.1,20.9,29.63,NW,325,5.8,5.8,84,0.00,CLR,,0.00,0.0,WeatherDisplay:10.37,2013-03-03 08:50:00,
2013-03-03 03:55:00,25.1,20.9,29.63,North,9,1.1,1.1,84,0.00,CLR,,0.00,0.0,WeatherDisplay:10.37,2013-03-03 08:55:00,
2013-03-03 04:00:00,25.1,20.9,29.63,NW,321,1.1,1.1,84,0.00,CLR,,0.00,0.0,WeatherDisplay:10.37,2013-03-03 09:00:00,
2013-03-03 04:05:00,25.1,20.9,29.63,NW,311,3.5,3.5,84,0.00,CLR,,0.00,0.0,WeatherDisplay:10.37,2013-03-03 09:05:00,
2013-03-03 04:10:00,25.1,20.9,29.63,NNW,328,3.5,3.5,84,0.00,CLR,,0.00,0.0,WeatherDisplay:10.37,2013-03-03 09:10:00,
2013-03-03 04:15:00,25.0,20.8,29.63,NW,313,3.5,3.5,84,0.00,CLR,,0.00,0.0,WeatherDisplay:10.37,2013-03-03 09:15:00,
2013-03-03 04:20:00,25.0,20.8,29.63,WNW,298,3.5,3.5,84,0.00,CLR,,0.00,0.0,WeatherDisplay:10.37,2013-03-03 09:20:00,
2013-03-03 04:25:00,25.0,20.8,29.63,NW,319,10.4,10.4,84,0.00,CLR,,0.00,0.0,WeatherDisplay:10.37,2013-03-03 09:25:00,
2013-03-03 04:30:00,24.9,20.8,29.63,NNW,333,3.5,3.5,84,0.00,CLR,,0.00,0.0,WeatherDisplay:10.37,2013-03-03 09:30:00,
2013-03-03 04:35:00,24.9,21.0,29.63,NNW,344,0.0,0.0,85,0.00,CLR,,0.00,0.0,WeatherDisplay:10.37,2013-03-03 09:35:00,
2013-03-03 04:40:00,24.9,21.0,29.63,WNW,301,3.5,3.5,85,0.00,CLR,,0.00,0.0,WeatherDisplay:10.37,2013-03-03 09:40:00,
2013-03-03 04:45:00,24.8,20.9,29.63,NNW,327,5.0,5.0,85,0.00,CLR,,0.00,0.0,WeatherDisplay:10.37,2013-03-03 09:45:00,
2013-03-03 04:50:00,24.8,21.2,29.63,NNW,339,4.6,4.6,86,0.00,CLR,,0.00,0.0,WeatherDisplay:10.37,2013-03-03 09:50:00,
2013-03-03 04:55:00,24.7,21.1,29.63,NW,305,3.0,3.0,86,0.00,CLR,,0.00,0.0,WeatherDisplay:10.37,2013-03-03 09:55:00,
2013-03-03 05:00:00,24.6,21.3,29.63,WNW,298,4.6,4.6,87,0.00,CLR,,0.00,0.0,WeatherDisplay:10.37,2013-03-03 10:00:00,
2013-03-03 05:05:00,24.5,21.2,29.63,NW,315,3.0,3.0,87,0.00,CLR,,0.00,0.0,WeatherDisplay:10.37,2013-03-03 10:05:00,
2013-03-03 05:10:00,24.4,21.1,29.63,North,355,11.5,11.5,87,0.00,CLR,,0.00,0.0,WeatherDisplay:10.37,2013-03-03 10:10:00,
2013-03-03 05:15:00,24.3,21.3,29.63,NW,304,4.6,4.6,88,0.00,CLR,,0.00,0.0,WeatherDisplay:10.37,2013-03-03 10:15:00,
2013-03-03 05:20:00,24.2,21.2,29.64,NW,304,5.8,5.8,88,0.00,CLR,,0.00,0.0,WeatherDisplay:10.37,2013-03-03 10:20:00,
2013-03-03 05:25:00,24.1,21.1,29.64,NNW,334,3.5,3.5,88,0.00,CLR,,0.00,0.0,WeatherDisplay:10.37,2013-03-03 10:25:00,
2013-03-03 05:30:00,24.1,21.1,29.63,North,355,3.5,3.5,88,0.00,CLR,,0.00,0.0,WeatherDisplay:10.37,2013-03-03 10:30:00,
2013-03-03 05:35:00,24.1,21.3,29.64,NW,307,3.5,3.5,89,0.00,CLR,,0.00,0.0,WeatherDisplay:10.37,2013-03-03 10:35:00,
2013-03-03 05:40:00,24.0,21.2,29.64,NW,322,5.8,5.8,89,0.00,CLR,,0.00,0.0,WeatherDisplay:10.37,2013-03-03 10:40:00,
2013-03-03 05:45:00,24.0,21.2,29.64,WNW,294,5.8,5.8,89,0.00,CLR,,0.00,0.0,WeatherDisplay:10.37,2013-03-03 10:45:00,
2013-03-03 05:50:00,23.9,21.1,29.64,WNW,287,3.5,3.5,89,0.00,CLR,,0.00,0.0,WeatherDisplay:10.37,2013-03-03 10:50:00,
2013-03-03 05:55:00,23.9,21.1,29.64,NNW,339,2.3,2.3,89,0.00,CLR,,0.00,0.0,WeatherDisplay:10.37,2013-03-03 10:55:00,
2013-03-03 06:00:00,23.9,21.1,29.64,NNW,327,3.5,3.5,89,0.00,CLR,,0.00,0.0,WeatherDisplay:10.37,2013-03-03 11:00:00,
2013-03-03 06:05:00,23.8,21.0,29.64,NNW,332,1.0,1.0,89,0.00,CLR,,0.00,0.0,WeatherDisplay:10.37,2013-03-03 11:05:00,
2013-03-03 06:10:00,23.8,21.3,29.64,NNW,330,4.6,4.6,90,0.00,CLR,,0.00,0.0,WeatherDisplay:10.37,2013-03-03 11:10:00,
2013-03-03 06:15:00,23.7,21.2,29.64,NW,314,4.0,4.0,90,0.00,CLR,,0.00,0.0,WeatherDisplay:10.37,2013-03-03 11:15:00,
2013-03-03 06:20:00,23.7,21.2,29.64,NW,307,3.5,3.5,90,0.00,CLR,,0.00,0.0,WeatherDisplay:10.37,2013-03-03 11:20:00,
2013-03-03 06:25:00,23.7,21.2,29.64,NW,311,5.8,5.8,90,0.00,CLR,,0.00,0.0,WeatherDisplay:10.37,2013-03-03 11:25:00,
2013-03-03 06:30:00,23.7,21.2,29.64,NW,312,2.0,2.0,90,0.00,CLR,,0.00,7.0,WeatherDisplay:10.37,2013-03-03 11:30:00,
2013-03-03 06:35:00,23.7,21.2,29.64,NNW,336,5.8,5.8,90,0.00,CLR,,0.00,9.0,WeatherDisplay:10.37,2013-03-03 11:35:00,
2013-03-03 06:40:00,23.6,21.1,29.64,NW,305,2.0,2.0,90,0.00,CLR,,0.00,11.0,WeatherDisplay:10.37,2013-03-03 11:40:00,
2013-03-03 06:45:00,23.6,21.1,29.65,WNW,292,6.9,6.9,90,0.00,CLR,,0.00,14.0,WeatherDisplay:10.37,2013-03-03 11:45:00,
2013-03-03 06:50:00,23.6,21.1,29.65,WNW,298,2.3,2.3,90,0.00,CLR,,0.00,16.0,WeatherDisplay:10.37,2013-03-03 11:50:00,
2013-03-03 06:55:00,23.6,21.1,29.65,NW,309,3.5,3.5,90,0.00,CLR,,0.00,19.0,WeatherDisplay:10.37,2013-03-03 11:55:00,
2013-03-03 07:00:00,23.6,21.4,29.65,WNW,289,10.4,10.4,91,0.00,CLR,,0.00,23.0,WeatherDisplay:10.37,2013-03-03 12:00:00,
2013-03-03 07:05:00,23.6,21.4,29.65,WNW,300,3.5,3.5,91,0.00,CLR,,0.00,26.0,WeatherDisplay:10.37,2013-03-03 12:05:00,
2013-03-03 07:10:00,23.6,21.4,29.65,NNW,334,5.8,5.8,91,0.00,CLR,,0.00,30.0,WeatherDisplay:10.37,2013-03-03 12:10:00,
2013-03-03 07:15:00,23.6,21.4,29.65,NW,309,3.0,3.0,91,0.00,CLR,,0.00,33.0,WeatherDisplay:10.37,2013-03-03 12:15:00,
2013-03-03 07:20:00,23.6,21.4,29.65,NW,325,2.3,2.3,91,0.00,CLR,,0.00,40.0,WeatherDisplay:10.37,2013-03-03 12:20:00,
2013-03-03 07:25:00,23.6,21.4,29.65,WNW,288,5.8,5.8,91,0.00,CLR,,0.00,42.0,WeatherDisplay:10.37,2013-03-03 12:25:00,
2013-03-03 07:30:00,23.7,21.5,29.65,NW,321,3.5,3.5,91,0.00,CLR,,0.00,44.0,WeatherDisplay:10.37,2013-03-03 12:30:00,
2013-03-03 07:35:00,23.7,21.5,29.65,NW,319,3.0,3.0,91,0.00,CLR,,0.00,44.0,WeatherDisplay:10.37,2013-03-03 12:35:00,
2013-03-03 07:40:00,23.8,21.6,29.65,North,11,3.5,3.5,91,0.00,CLR,,0.00,51.0,WeatherDisplay:10.37,2013-03-03 12:40:00,
2013-03-03 07:45:00,23.8,21.6,29.65,NW,309,1.1,0.0,91,0.00,CLR,,0.00,58.0,WeatherDisplay:10.37,2013-03-03 12:45:00,
2013-03-03 07:50:00,23.9,21.7,29.65,WNW,303,3.5,3.5,91,0.00,CLR,,0.00,63.0,WeatherDisplay:10.37,2013-03-03 12:50:00,
2013-03-03 07:55:00,24.0,21.8,29.65,WNW,284,2.3,2.3,91,0.00,CLR,,0.00,67.0,WeatherDisplay:10.37,2013-03-03 12:55:00,
2013-03-03 08:00:00,24.0,22.0,29.65,WNW,303,2.3,2.3,92,0.00,OVC,,0.00,69.0,WeatherDisplay:10.37,2013-03-03 13:00:00,
2013-03-03 08:05:00,24.1,22.1,29.65,NW,306,3.5,3.5,92,0.00,OVC,,0.00,70.0,WeatherDisplay:10.37,2013-03-03 13:05:00,
2013-03-03 08:10:00,24.2,22.2,29.65,West,268,3.0,3.0,92,0.00,OVC,,0.00,74.0,WeatherDisplay:10.37,2013-03-03 13:10:00,
2013-03-03 08:15:00,24.3,22.3,29.65,West,281,3.5,3.5,92,0.00,OVC,,0.00,69.0,WeatherDisplay:10.37,2013-03-03 13:15:00,
2013-03-03 08:20:00,24.4,22.4,29.65,NE,41,1.1,0.0,92,0.00,OVC,,0.00,65.0,WeatherDisplay:10.37,2013-03-03 13:20:00,
2013-03-03 08:25:00,24.5,22.5,29.65,WNW,293,2.3,2.3,92,0.00,OVC,,0.00,63.0,WeatherDisplay:10.37,2013-03-03 13:25:00,
2013-03-03 08:30:00,24.6,22.6,29.65,NW,325,3.5,3.5,92,0.00,OVC,,0.00,63.0,WeatherDisplay:10.37,2013-03-03 13:30:00,
2013-03-03 08:35:00,24.7,22.7,29.65,NW,312,2.3,2.3,92,0.00,OVC,,0.00,62.0,WeatherDisplay:10.37,2013-03-03 13:35:00,
2013-03-03 08:40:00,24.9,22.9,29.65,West,271,3.5,3.5,92,0.00,OVC,,0.00,65.0,WeatherDisplay:10.37,2013-03-03 13:40:00,
2013-03-03 08:46:00,25.0,23.0,29.65,NW,316,5.8,5.8,92,0.00,OVC,,0.00,63.0,WeatherDisplay:10.37,2013-03-03 13:46:00,
2013-03-03 08:51:00,25.0,23.0,29.65,North,351,5.8,5.8,92,0.00,OVC,,0.00,74.0,WeatherDisplay:10.37,2013-03-03 13:51:00,
2013-03-03 08:56:00,25.0,23.0,29.65,NW,309,3.5,3.5,92,0.00,OVC,,0.00,81.0,WeatherDisplay:10.37,2013-03-03 13:56:00,
2013-03-03 09:01:00,25.1,22.8,29.64,West,277,3.5,3.5,91,0.00,OVC,,0.00,77.0,WeatherDisplay:10.37,2013-03-03 14:01:00,
2013-03-03 09:06:00,25.2,22.9,29.64,WNW,300,3.5,3.5,91,0.00,OVC,,0.00,77.0,WeatherDisplay:10.37,2013-03-03 14:06:00,
2013-03-03 09:11:00,25.4,23.4,29.64,ESE,115,2.3,2.3,92,0.00,OVC,,0.00,83.0,WeatherDisplay:10.37,2013-03-03 14:11:00,
2013-03-03 09:16:00,25.5,23.2,29.64,WNW,292,2.3,0.0,91,0.00,OVC,,0.00,93.0,WeatherDisplay:10.37,2013-03-03 14:16:00,
2013-03-03 09:21:00,25.6,23.3,29.64,NW,311,3.5,3.5,91,0.00,OVC,,0.00,98.0,WeatherDisplay:10.37,2013-03-03 14:21:00,
2013-03-03 09:26:00,25.8,23.5,29.64,NW,312,3.5,3.5,91,0.00,OVC,,0.00,116.0,WeatherDisplay:10.37,2013-03-03 14:26:00,
2013-03-03 09:31:00,26.1,23.8,29.64,NW,304,0.0,0.0,91,0.00,OVC,,0.00,123.0,WeatherDisplay:10.37,2013-03-03 14:31:00,
2013-03-03 09:36:00,26.3,24.0,29.64,NNW,332,3.5,3.5,91,0.00,OVC,,0.00,109.0,WeatherDisplay:10.37,2013-03-03 14:36:00,
2013-03-03 09:41:00,26.6,24.3,29.64,NNW,331,3.5,3.5,91,0.00,OVC,,0.00,118.0,WeatherDisplay:10.37,2013-03-03 14:41:00,
2013-03-03 09:46:00,26.7,24.4,29.64,NW,304,3.5,0.0,91,0.00,OVC,,0.00,116.0,WeatherDisplay:10.37,2013-03-03 14:46:00,
2013-03-03 09:51:00,27.0,24.5,29.64,WNW,303,3.5,3.5,90,0.00,OVC,,0.00,118.0,WeatherDisplay:10.37,2013-03-03 14:51:00,
2013-03-03 09:56:00,27.2,24.7,29.64,North,355,2.3,2.3,90,0.00,OVC,,0.00,132.0,WeatherDisplay:10.37,2013-03-03 14:56:00,
2013-03-03 10:01:00,27.3,24.8,29.64,NNW,328,4.6,4.6,90,0.00,OVC,,0.00,139.0,WeatherDisplay:10.37,2013-03-03 15:01:00,
2013-03-03 10:06:00,27.5,24.7,29.63,North,349,2.3,2.3,89,0.00,OVC,,0.00,160.0,WeatherDisplay:10.37,2013-03-03 15:06:00,
2013-03-03 10:11:00,27.7,24.9,29.63,NNW,342,2.3,2.3,89,0.00,OVC,,0.00,202.0,WeatherDisplay:10.37,2013-03-03 15:11:00,
2013-03-03 10:16:00,28.1,25.3,29.63,NNW,333,4.6,4.6,89,0.00,OVC,,0.00,260.0,WeatherDisplay:10.37,2013-03-03 15:16:00,
2013-03-03 10:21:00,28.5,25.7,29.63,North,355,6.9,6.9,89,0.00,OVC,,0.00,171.0,WeatherDisplay:10.37,2013-03-03 15:21:00,
2013-03-03 10:26:00,28.6,25.8,29.63,NW,325,1.1,1.2,89,0.00,OVC,,0.00,218.0,WeatherDisplay:10.37,2013-03-03 15:26:00,
2013-03-03 10:31:00,28.9,25.8,29.63,NW,304,2.3,0.0,88,0.00,OVC,,0.00,221.0,WeatherDisplay:10.37,2013-03-03 15:31:00,
2013-03-03 10:36:00,29.1,26.0,29.62,NW,314,5.8,5.8,88,0.00,OVC,,0.00,225.0,WeatherDisplay:10.37,2013-03-03 15:36:00,
2013-03-03 10:41:00,29.3,26.2,29.62,NNW,346,1.1,0.0,88,0.01,RA,,0.01,241.0,WeatherDisplay:10.37,2013-03-03 15:41:00,
2013-03-03 10:46:00,29.4,26.0,29.62,WNW,303,6.9,6.9,87,0.01,RA,,0.01,241.0,WeatherDisplay:10.37,2013-03-03 15:46:00,
2013-03-03 10:51:00,29.5,26.1,29.62,NW,318,10.4,10.4,87,0.01,OVC,,0.01,257.0,WeatherDisplay:10.37,2013-03-03 15:51:00,
2013-03-03 10:56:00,29.6,25.9,29.62,NNW,328,5.0,5.0,86,0.02,RA,,0.02,218.0,WeatherDisplay:10.37,2013-03-03 15:56:00,
2013-03-03 11:01:00,29.5,25.8,29.63,WNW,303,3.5,3.5,86,0.02,RA,,0.02,199.0,WeatherDisplay:10.37,2013-03-03 16:01:00,
2013-03-03 11:06:00,29.5,25.8,29.62,NW,307,3.5,3.5,86,0.02,OVC,,0.02,232.0,WeatherDisplay:10.37,2013-03-03 16:06:00,
2013-03-03 11:11:00,29.6,26.2,29.62,NW,319,2.3,2.3,87,0.02,OVC,,0.02,251.0,WeatherDisplay:10.37,2013-03-03 16:11:00,
2013-03-03 11:16:00,29.8,26.1,29.62,NW,315,5.8,5.8,86,0.02,OVC,,0.02,290.0,WeatherDisplay:10.37,2013-03-03 16:16:00,
2013-03-03 11:21:00,29.8,26.1,29.62,NNW,333,3.5,3.5,86,0.03,RA,,0.03,230.0,WeatherDisplay:10.37,2013-03-03 16:21:00,
2013-03-03 11:26:00,29.9,26.2,29.62,North,5,3.5,3.5,86,0.03,RA,,0.03,251.0,WeatherDisplay:10.37,2013-03-03 16:26:00,
2013-03-03 11:31:00,30.0,26.3,29.62,NW,305,5.8,5.8,86,0.03,CLR,,0.03,290.0,WeatherDisplay:10.37,2013-03-03 16:31:00,
2013-03-03 11:36:00,30.2,26.5,29.62,NW,313,5.0,5.4,86,0.03,CLR,,0.03,281.0,WeatherDisplay:10.37,2013-03-03 16:36:00,
2013-03-03 11:41:00,30.3,26.6,29.62,NNW,331,6.9,6.9,86,0.02,CLR,,0.03,287.0,WeatherDisplay:10.37,2013-03-03 16:41:00,
2013-03-03 11:46:00,30.4,26.4,29.62,NW,319,3.5,3.5,85,0.02,CLR,,0.03,255.0,WeatherDisplay:10.37,2013-03-03 16:46:00,
2013-03-03 11:51:00,30.7,27.0,29.62,NNW,327,3.0,4.8,86,0.02,CLR,,0.03,274.0,WeatherDisplay:10.37,2013-03-03 16:51:00,
2013-03-03 11:56:00,30.9,27.2,29.61,WNW,303,3.0,3.0,86,0.02,RA,,0.04,309.0,WeatherDisplay:10.37,2013-03-03 16:56:00,
2013-03-03 12:01:00,31.1,27.1,29.61,North,9,3.5,3.5,85,0.02,RA,,0.04,329.0,WeatherDisplay:10.37,2013-03-03 17:01:00,
2013-03-03 12:06:00,31.5,27.5,29.61,NNE,31,1.1,1.1,85,0.02,CLR,,0.04,292.0,WeatherDisplay:10.37,2013-03-03 17:06:00,
2013-03-03 12:11:00,31.9,27.6,29.61,NNW,330,0.0,0.7,84,0.02,CLR,,0.04,255.0,WeatherDisplay:10.37,2013-03-03 17:11:00,
2013-03-03 12:16:00,32.1,29.5,29.61,WNW,294,3.0,3.0,90,0.02,CLR,,0.04,213.0,WeatherDisplay:10.37,2013-03-03 17:16:00,
2013-03-03 12:21:00,32.2,27.9,29.61,NNW,346,5.8,5.8,84,0.01,CLR,,0.04,229.0,WeatherDisplay:10.37,2013-03-03 17:21:00,
2013-03-03 12:26:00,32.0,27.4,29.60,NNW,340,10.4,10.4,83,0.01,CLR,,0.04,199.0,WeatherDisplay:10.37,2013-03-03 17:26:00,
2013-03-03 12:31:00,31.9,27.3,29.60,WNW,300,3.5,3.5,83,0.01,CLR,,0.04,214.0,WeatherDisplay:10.37,2013-03-03 17:31:00,
2013-03-03 12:36:00,31.8,27.2,29.60,NW,309,6.0,6.0,83,0.02,RA,,0.05,220.0,WeatherDisplay:10.37,2013-03-03 17:36:00,
2013-03-03 12:41:00,31.7,27.1,29.60,North,5,1.1,1.1,83,0.02,RA,,0.05,216.0,WeatherDisplay:10.37,2013-03-03 17:41:00,
2013-03-03 12:46:00,31.7,27.1,29.60,NNW,331,4.6,4.6,83,0.02,CLR,,0.05,211.0,WeatherDisplay:10.37,2013-03-03 17:46:00,
2013-03-03 12:51:00,31.9,27.6,29.60,WNW,294,5.8,5.8,84,0.02,CLR,,0.05,230.0,WeatherDisplay:10.37,2013-03-03 17:51:00,
2013-03-03 12:56:00,32.1,27.8,29.59,ENE,64,6.9,6.9,84,0.01,CLR,,0.05,232.0,WeatherDisplay:10.37,2013-03-03 17:56:00,
2013-03-03 13:01:00,32.2,27.9,29.60,North,5,1.1,1.1,84,0.01,CLR,,0.05,230.0,WeatherDisplay:10.37,2013-03-03 18:01:00,
2013-03-03 13:06:00,32.3,28.3,29.59,NW,315,1.0,1.0,85,0.01,FEW,,0.05,243.0,WeatherDisplay:10.37,2013-03-03 18:06:00,
2013-03-03 13:11:00,32.5,28.5,29.59,North,5,5.8,5.8,85,0.01,CLR,,0.05,244.0,WeatherDisplay:10.37,2013-03-03 18:11:00,
2013-03-03 13:16:00,32.5,28.2,29.59,North,9,3.5,3.5,84,0.01,FEW,,0.05,192.0,WeatherDisplay:10.37,2013-03-03 18:16:00,
2013-03-03 13:21:00,32.6,28.3,29.59,SE,126,5.8,5.8,84,0.01,SCT,,0.05,174.0,WeatherDisplay:10.37,2013-03-03 18:21:00,
2013-03-03 13:26:00,32.5,28.2,29.59,NW,312,2.3,0.0,84,0.01,SCT,,0.05,160.0,WeatherDisplay:10.37,2013-03-03 18:26:00,
2013-03-03 13:31:00,32.5,28.2,29.59,NW,304,3.5,3.5,84,0.01,SCT,,0.05,151.0,WeatherDisplay:10.37,2013-03-03 18:31:00,
2013-03-03 13:36:00,32.5,28.2,29.59,NNW,337,3.5,3.5,84,0.00,SCT,,0.05,158.0,WeatherDisplay:10.37,2013-03-03 18:36:00,
2013-03-03 13:41:00,32.5,28.2,29.59,WNW,289,3.5,3.5,84,0.00,SCT,,0.05,179.0,WeatherDisplay:10.37,2013-03-03 18:41:00,
2013-03-03 13:46:00,32.6,28.3,29.59,WSW,253,1.0,1.0,84,0.00,BKN,,0.05,155.0,WeatherDisplay:10.37,2013-03-03 18:46:00,
2013-03-03 13:51:00,32.6,28.3,29.59,NW,304,4.6,4.6,84,0.00,BKN,,0.05,167.0,WeatherDisplay:10.37,2013-03-03 18:51:00,
2013-03-03 13:56:00,32.5,28.2,29.59,North,350,3.5,3.5,84,0.00,BKN,,0.05,162.0,WeatherDisplay:10.37,2013-03-03 18:56:00,
2013-03-03 14:01:00,32.5,28.2,29.59,NNW,331,0.0,0.1,84,0.00,BKN,,0.05,163.0,WeatherDisplay:10.37,2013-03-03 19:01:00,
2013-03-03 14:06:00,32.4,28.1,29.59,NNW,327,6.9,6.9,84,0.00,BKN,,0.05,149.0,WeatherDisplay:10.37,2013-03-03 19:06:00,
2013-03-03 14:11:00,32.4,28.1,29.59,NNW,336,3.5,3.5,84,0.00,BKN,,0.05,155.0,WeatherDisplay:10.37,2013-03-03 19:11:00,
2013-03-03 14:16:00,32.4,28.1,29.59,East,98,3.5,3.5,84,0.00,BKN,,0.05,149.0,WeatherDisplay:10.37,2013-03-03 19:16:00,
2013-03-03 14:21:00,32.4,28.4,29.59,NW,312,10.4,10.4,85,0.00,BKN,,0.05,160.0,WeatherDisplay:10.37,2013-03-03 19:21:00,
2013-03-03 14:26:00,32.3,28.3,29.59,NW,323,3.5,3.5,85,0.00,BKN,,0.05,132.0,WeatherDisplay:10.37,2013-03-03 19:26:00,
2013-03-03 14:31:00,32.1,28.1,29.59,NW,312,4.6,0.0,85,0.00,BKN,,0.05,134.0,WeatherDisplay:10.37,2013-03-03 19:31:00,
2013-03-03 14:36:00,32.0,28.3,29.59,NW,313,0.0,0.0,86,0.00,BKN,,0.05,111.0,WeatherDisplay:10.37,2013-03-03 19:36:00,
2013-03-03 14:41:00,32.1,28.7,29.59,NW,305,5.0,6.1,87,0.01,RA,,0.06,102.0,WeatherDisplay:10.37,2013-03-03 19:41:00,
2013-03-03 14:46:00,32.0,28.6,29.59,NNW,329,3.5,3.5,87,0.01,RA,,0.06,104.0,WeatherDisplay:10.37,2013-03-03 19:46:00,
2013-03-03 14:51:00,32.0,28.6,29.59,NW,313,5.8,5.8,87,0.01,BKN,,0.06,93.0,WeatherDisplay:10.37,2013-03-03 19:51:00,
2013-03-03 14:56:00,31.8,28.4,29.59,WNW,286,11.5,11.5,87,0.01,BKN,,0.06,90.0,WeatherDisplay:10.37,2013-03-03 19:56:00,
2013-03-03 15:01:00,31.7,28.3,29.59,WNW,298,5.8,5.8,87,0.01,BKN,,0.06,77.0,WeatherDisplay:10.37,2013-03-03 20:01:00,
2013-03-03 15:06:00,31.6,27.9,29.59,NNW,334,4.6,0.0,86,0.01,BKN,,0.06,102.0,WeatherDisplay:10.37,2013-03-03 20:06:00,
2013-03-03 15:11:00,31.7,28.0,29.59,WNW,299,11.5,11.5,86,0.01,BKN,,0.06,123.0,WeatherDisplay:10.37,2013-03-03 20:11:00,
2013-03-03 15:16:00,31.6,27.9,29.59,NNW,340,9.2,9.2,86,0.01,BKN,,0.06,105.0,WeatherDisplay:10.37,2013-03-03 20:16:00,
2013-03-03 15:21:00,31.6,27.9,29.59,NW,308,10.4,10.4,86,0.01,BKN,,0.06,118.0,WeatherDisplay:10.37,2013-03-03 20:21:00,
2013-03-03 15:26:00,31.6,27.9,29.59,NNW,338,6.9,6.9,86,0.01,BKN,,0.06,149.0,WeatherDisplay:10.37,2013-03-03 20:26:00,
2013-03-03 15:31:00,31.6,27.9,29.59,NW,317,7.0,7.0,86,0.01,BKN,,0.06,163.0,WeatherDisplay:10.37,2013-03-03 20:31:00,
2013-03-03 15:36:00,31.7,28.0,29.59,WNW,292,10.4,10.4,86,0.01,BKN,,0.06,176.0,WeatherDisplay:10.37,2013-03-03 20:36:00,
2013-03-03 15:41:00,31.8,28.1,29.59,NW,321,6.9,6.9,86,0.00,BKN,,0.06,137.0,WeatherDisplay:10.37,2013-03-03 20:41:00,
2013-03-03 15:46:00,31.8,28.1,29.59,NNW,327,4.0,4.0,86,0.00,BKN,,0.06,123.0,WeatherDisplay:10.37,2013-03-03 20:46:00,
2013-03-03 15:51:00,31.8,27.8,29.59,NW,315,4.0,4.0,85,0.00,BKN,,0.06,109.0,WeatherDisplay:10.37,2013-03-03 20:51:00,
2013-03-03 15:56:00,31.9,27.9,29.59,WNW,288,2.3,2.3,85,0.00,BKN,,0.06,109.0,WeatherDisplay:10.37,2013-03-03 20:56:00,
2013-03-03 16:01:00,31.8,27.8,29.59,WNW,298,5.8,5.8,85,0.00,BKN,,0.06,109.0,WeatherDisplay:10.37,2013-03-03 21:01:00,
2013-03-03 16:06:00,31.8,27.5,29.59,WNW,301,5.8,5.8,84,0.00,BKN,,0.06,98.0,WeatherDisplay:10.37,2013-03-03 21:06:00,
2013-03-03 16:11:00,31.6,27.3,29.59,NNW,329,6.9,6.9,84,0.00,BKN,,0.06,100.0,WeatherDisplay:10.37,2013-03-03 21:11:00,
2013-03-03 16:16:00,31.5,27.2,29.59,WNW,288,11.5,11.5,84,0.00,BKN,,0.06,88.0,WeatherDisplay:10.37,2013-03-03 21:16:00,
2013-03-03 16:21:00,31.5,27.2,29.60,WNW,283,9.2,9.2,84,0.00,BKN,,0.06,67.0,WeatherDisplay:10.37,2013-03-03 21:21:00,
2013-03-03 16:26:00,31.3,27.0,29.60,NW,305,3.5,3.5,84,0.00,BKN,,0.06,53.0,WeatherDisplay:10.37,2013-03-03 21:26:00,
2013-03-03 16:31:00,31.1,26.8,29.60,WNW,287,9.0,9.0,84,0.00,BKN,,0.06,51.0,WeatherDisplay:10.37,2013-03-03 21:31:00,
2013-03-03 16:36:00,30.9,26.6,29.60,NW,320,6.9,6.9,84,0.00,BKN,,0.06,53.0,WeatherDisplay:10.37,2013-03-03 21:36:00,
2013-03-03 16:41:00,30.7,26.1,29.60,North,5,4.0,4.0,83,0.00,CLR,,0.06,46.0,WeatherDisplay:10.37,2013-03-03 21:41:00,
2013-03-03 16:46:00,30.6,26.3,29.60,NW,313,4.6,4.6,84,0.00,CLR,,0.06,44.0,WeatherDisplay:10.37,2013-03-03 21:46:00,
2013-03-03 16:51:00,30.3,26.0,29.60,NNE,21,8.1,8.1,84,0.00,CLR,,0.06,42.0,WeatherDisplay:10.37,2013-03-03 21:51:00,
2013-03-03 16:56:00,30.2,25.9,29.60,NNW,338,5.8,5.8,84,0.00,CLR,,0.06,40.0,WeatherDisplay:10.37,2013-03-03 21:56:00,
2013-03-03 17:01:00,30.0,25.8,29.60,WNW,288,5.8,5.8,84,0.00,CLR,,0.06,33.0,WeatherDisplay:10.37,2013-03-03 22:01:00,
2013-03-03 17:06:00,29.9,25.7,29.60,NW,315,4.0,4.0,84,0.00,CLR,,0.06,26.0,WeatherDisplay:10.37,2013-03-03 22:06:00,
2013-03-03 17:11:00,29.7,25.7,29.60,NW,325,5.0,5.0,85,0.00,CLR,,0.06,21.0,WeatherDisplay:10.37,2013-03-03 22:11:00,
2013-03-03 17:16:00,29.5,25.5,29.60,NW,311,2.3,2.3,85,0.00,CLR,,0.06,18.0,WeatherDisplay:10.37,2013-03-03 22:16:00,
2013-03-03 17:21:00,29.3,25.4,29.60,North,5,8.1,8.1,85,0.00,CLR,,0.06,12.0,WeatherDisplay:10.37,2013-03-03 22:21:00,
2013-03-03 17:26:00,29.2,25.5,29.61,North,360,9.2,9.2,86,0.00,CLR,,0.06,12.0,WeatherDisplay:10.37,2013-03-03 22:26:00,
2013-03-03 17:31:00,29.0,25.3,29.61,NNW,327,4.6,4.6,86,0.00,CLR,,0.06,11.0,WeatherDisplay:10.37,2013-03-03 22:31:00,
2013-03-03 17:36:00,28.9,25.2,29.61,NW,315,6.9,6.9,86,0.00,CLR,,0.06,9.0,WeatherDisplay:10.37,2013-03-03 22:36:00,
2013-03-03 17:41:00,28.8,25.4,29.61,NW,317,3.5,0.0,87,0.00,CLR,,0.06,5.0,WeatherDisplay:10.37,2013-03-03 22:41:00,
2013-03-03 17:46:00,28.6,25.2,29.61,NNW,337,5.8,5.8,87,0.00,CLR,,0.06,0.0,WeatherDisplay:10.37,2013-03-03 22:46:00,
2013-03-03 17:51:00,28.4,25.0,29.61,WNW,292,3.5,3.5,87,0.00,CLR,,0.06,0.0,WeatherDisplay:10.37,2013-03-03 22:51:00,
2013-03-03 17:56:00,28.3,25.2,29.61,NW,307,4.6,4.6,88,0.00,CLR,,0.06,0.0,WeatherDisplay:10.37,2013-03-03 22:56:00,
2013-03-03 18:01:00,28.1,25.0,29.61,NNW,338,4.6,4.6,88,0.00,CLR,,0.06,0.0,WeatherDisplay:10.37,2013-03-03 23:01:00,
2013-03-03 18:06:00,28.0,24.9,29.61,WNW,294,4.6,4.6,88,0.00,CLR,,0.06,0.0,WeatherDisplay:10.37,2013-03-03 23:06:00,
2013-03-03 18:11:00,27.9,24.8,29.61,NNW,338,2.3,2.3,88,0.00,CLR,,0.06,0.0,WeatherDisplay:10.37,2013-03-03 23:11:00,
2013-03-03 18:16:00,27.8,24.7,29.61,WNW,300,2.3,2.3,88,0.00,CLR,,0.06,0.0,WeatherDisplay:10.37,2013-03-03 23:16:00,
2013-03-03 18:21:00,27.7,24.9,29.62,NW,308,7.0,7.0,89,0.00,CLR,,0.06,0.0,WeatherDisplay:10.37,2013-03-03 23:21:00,
2013-03-03 18:26:00,27.6,24.8,29.62,WNW,292,3.5,3.5,89,0.00,CLR,,0.06,0.0,WeatherDisplay:10.37,2013-03-03 23:26:00,
2013-03-03 18:31:00,27.6,24.8,29.62,WNW,292,8.1,8.1,89,0.00,CLR,,0.06,0.0,WeatherDisplay:10.37,2013-03-03 23:31:00,
2013-03-03 18:36:00,27.5,24.7,29.62,WNW,296,3.5,3.5,89,0.00,CLR,,0.06,0.0,WeatherDisplay:10.37,2013-03-03 23:36:00,
2013-03-03 18:41:00,27.5,24.7,29.62,NNW,346,4.6,4.6,89,0.00,CLR,,0.06,0.0,WeatherDisplay:10.37,2013-03-03 23:41:00,
2013-03-03 18:46:00,27.5,24.7,29.63,WNW,290,6.9,6.9,89,0.00,CLR,,0.06,0.0,WeatherDisplay:10.37,2013-03-03 23:46:00,
2013-03-03 18:51:00,27.5,24.7,29.63,NNW,332,2.3,2.3,89,0.00,CLR,,0.06,0.0,WeatherDisplay:10.37,2013-03-03 23:51:00,
2013-03-03 18:56:00,27.5,24.7,29.63,NW,321,3.5,3.5,89,0.00,CLR,,0.06,0.0,WeatherDisplay:10.37,2013-03-03 23:56:00,
2013-03-03 19:01:00,27.5,24.7,29.63,NW,310,4.6,4.6,89,0.00,CLR,,0.06,0.0,WeatherDisplay:10.37,2013-03-04 00:01:00,
2013-03-03 19:06:00,27.5,24.7,29.63,NNW,327,4.6,4.6,89,0.00,CLR,,0.06,0.0,WeatherDisplay:10.37,2013-03-04 00:06:00,
2013-03-03 19:11:00,27.5,24.7,29.63,NW,312,3.5,3.5,89,0.00,CLR,,0.06,0.0,WeatherDisplay:10.37,2013-03-04 00:11:00,
2013-03-03 19:16:00,27.5,24.7,29.63,WNW,288,4.6,4.6,89,0.00,CLR,,0.06,0.0,WeatherDisplay:10.37,2013-03-04 00:16:00,
2013-03-03 19:21:00,27.5,24.7,29.63,NW,317,4.6,4.6,89,0.00,CLR,,0.06,0.0,WeatherDisplay:10.37,2013-03-04 00:21:00,
2013-03-03 19:26:00,27.5,24.7,29.63,NNW,328,2.0,3.6,89,0.00,CLR,,0.06,0.0,WeatherDisplay:10.37,2013-03-04 00:26:00,
2013-03-03 19:31:00,27.5,24.7,29.63,NW,321,4.6,4.6,89,0.00,CLR,,0.06,0.0,WeatherDisplay:10.37,2013-03-04 00:31:00,
2013-03-03 19:36:00,27.4,24.6,29.63,NW,309,1.1,1.1,89,0.00,CLR,,0.06,0.0,WeatherDisplay:10.37,2013-03-04 00:36:00,
2013-03-03 19:41:00,27.4,24.6,29.63,WNW,292,3.5,3.5,89,0.00,CLR,,0.06,0.0,WeatherDisplay:10.37,2013-03-04 00:41:00,
2013-03-03 19:46:00,27.3,24.5,29.63,WNW,300,3.5,3.5,89,0.00,CLR,,0.06,0.0,WeatherDisplay:10.37,2013-03-04 00:46:00,
2013-03-03 19:51:00,27.3,24.5,29.63,NW,326,1.0,1.5,89,0.00,CLR,,0.06,0.0,WeatherDisplay:10.37,2013-03-04 00:51:00,
2013-03-03 19:56:00,27.3,24.5,29.64,North,10,2.3,2.3,89,0.00,CLR,,0.06,0.0,WeatherDisplay:10.37,2013-03-04 00:56:00,
2013-03-03 20:01:00,27.3,24.5,29.64,NW,311,0.0,0.0,89,0.00,CLR,,0.06,0.0,WeatherDisplay:10.37,2013-03-04 01:01:00,
2013-03-03 20:06:00,27.3,24.5,29.64,NNW,334,3.5,3.5,89,0.00,CLR,,0.06,0.0,WeatherDisplay:10.37,2013-03-04 01:06:00,
2013-03-03 20:11:00,27.2,24.4,29.64,NW,323,2.3,2.3,89,0.00,CLR,,0.06,0.0,WeatherDisplay:10.37,2013-03-04 01:11:00,
2013-03-03 20:16:00,27.2,24.4,29.64,NW,315,2.0,4.2,89,0.00,CLR,,0.06,0.0,WeatherDisplay:10.37,2013-03-04 01:16:00,
2013-03-03 20:21:00,27.2,24.4,29.64,NW,315,3.5,3.5,89,0.00,CLR,,0.06,0.0,WeatherDisplay:10.37,2013-03-04 01:21:00,
2013-03-03 20:26:00,27.2,24.4,29.64,West,280,3.5,3.5,89,0.00,CLR,,0.06,0.0,WeatherDisplay:10.37,2013-03-04 01:26:00,
2013-03-03 20:31:00,27.1,24.3,29.64,NNW,333,0.0,0.3,89,0.00,CLR,,0.06,0.0,WeatherDisplay:10.37,2013-03-04 01:31:00,
2013-03-03 20:36:00,27.2,24.4,29.64,NW,315,9.2,9.2,89,0.00,CLR,,0.06,0.0,WeatherDisplay:10.37,2013-03-04 01:36:00,
2013-03-03 20:41:00,27.1,24.3,29.64,NW,312,5.8,5.8,89,0.00,CLR,,0.06,0.0,WeatherDisplay:10.37,2013-03-04 01:41:00,
2013-03-03 20:46:00,27.1,24.3,29.64,WNW,282,1.0,1.0,89,0.00,CLR,,0.06,0.0,WeatherDisplay:10.37,2013-03-04 01:46:00,
2013-03-03 20:51:00,27.1,24.3,29.64,WNW,288,3.5,3.5,89,0.00,CLR,,0.06,0.0,WeatherDisplay:10.37,2013-03-04 01:51:00,
2013-03-03 20:56:00,27.1,24.0,29.64,NW,311,1.1,1.1,88,0.00,CLR,,0.06,0.0,WeatherDisplay:10.37,2013-03-04 01:56:00,
2013-03-03 21:01:00,27.1,24.0,29.64,WNW,292,2.0,2.0,88,0.00,CLR,,0.06,0.0,WeatherDisplay:10.37,2013-03-04 02:01:00,
2013-03-03 21:06:00,27.1,24.0,29.64,NW,316,5.0,5.0,88,0.00,CLR,,0.06,0.0,WeatherDisplay:10.37,2013-03-04 02:06:00,
2013-03-03 21:11:00,27.1,24.0,29.64,NNW,330,5.0,5.0,88,0.00,CLR,,0.06,0.0,WeatherDisplay:10.37,2013-03-04 02:11:00,
2013-03-03 21:16:00,27.1,24.0,29.64,NW,314,3.5,3.5,88,0.00,CLR,,0.06,0.0,WeatherDisplay:10.37,2013-03-04 02:16:00,
2013-03-03 21:21:00,27.0,23.9,29.64,NW,323,6.9,6.9,88,0.00,CLR,,0.06,0.0,WeatherDisplay:10.37,2013-03-04 02:21:00,
2013-03-03 21:26:00,27.0,23.9,29.64,NNW,331,4.6,4.6,88,0.00,CLR,,0.06,0.0,WeatherDisplay:10.37,2013-03-04 02:26:00,
2013-03-03 21:31:00,27.0,23.9,29.64,NW,322,3.5,3.5,88,0.00,CLR,,0.06,0.0,WeatherDisplay:10.37,2013-03-04 02:31:00,
2013-03-03 21:36:00,27.0,23.9,29.64,NNW,337,10.4,10.4,88,0.00,CLR,,0.06,0.0,WeatherDisplay:10.37,2013-03-04 02:36:00,
2013-03-03 21:41:00,27.0,23.9,29.64,NNW,339,5.8,5.8,88,0.00,CLR,,0.06,0.0,WeatherDisplay:10.37,2013-03-04 02:41:00,
2013-03-03 21:46:00,27.0,23.6,29.64,WNW,298,3.5,3.5,87,0.00,CLR,,0.06,0.0,WeatherDisplay:10.37,2013-03-04 02:46:00,
2013-03-03 21:51:00,27.0,23.6,29.64,NE,34,10.4,10.4,87,0.00,CLR,,0.06,0.0,WeatherDisplay:10.37,2013-03-04 02:51:00,
2013-03-03 21:56:00,27.1,23.7,29.64,NNW,336,11.5,11.5,87,0.00,CLR,,0.06,0.0,WeatherDisplay:10.37,2013-03-04 02:56:00,
2013-03-03 22:01:00,27.1,23.7,29.64,West,275,3.5,3.5,87,0.00,CLR,,0.06,0.0,WeatherDisplay:10.37,2013-03-04 03:01:00,
2013-03-03 22:06:00,27.1,23.7,29.64,NW,319,10.4,10.4,87,0.00,CLR,,0.06,0.0,WeatherDisplay:10.37,2013-03-04 03:06:00,
2013-03-03 22:11:00,27.1,23.7,29.64,NNW,331,5.8,5.8,87,0.00,CLR,,0.06,0.0,WeatherDisplay:10.37,2013-03-04 03:11:00,
2013-03-03 22:16:00,27.1,23.7,29.64,North,360,5.8,5.8,87,0.00,CLR,,0.06,0.0,WeatherDisplay:10.37,2013-03-04 03:16:00,
2013-03-03 22:21:00,27.1,23.7,29.64,North,349,11.5,11.5,87,0.00,CLR,,0.06,0.0,WeatherDisplay:10.37,2013-03-04 03:21:00,
2013-03-03 22:26:00,27.1,23.5,29.64,NNE,14,10.4,10.4,86,0.00,CLR,,0.06,0.0,WeatherDisplay:10.37,2013-03-04 03:26:00,
2013-03-03 22:31:00,27.1,23.5,29.63,WNW,303,5.8,5.8,86,0.00,CLR,,0.06,0.0,WeatherDisplay:10.37,2013-03-04 03:31:00,
2013-03-03 22:36:00,27.2,23.6,29.63,NNW,341,4.0,4.3,86,0.00,CLR,,0.06,0.0,WeatherDisplay:10.37,2013-03-04 03:36:00,
2013-03-03 22:41:00,27.1,23.5,29.63,North,350,3.5,0.0,86,0.00,CLR,,0.06,0.0,WeatherDisplay:10.37,2013-03-04 03:41:00,
2013-03-03 22:46:00,27.1,23.5,29.63,NNW,335,5.8,5.8,86,0.00,CLR,,0.06,0.0,WeatherDisplay:10.37,2013-03-04 03:46:00,
2013-03-03 22:51:00,27.1,23.5,29.64,NW,321,3.5,3.5,86,0.00,CLR,,0.06,0.0,WeatherDisplay:10.37,2013-03-04 03:51:00,
2013-03-03 22:56:00,27.1,23.5,29.64,NW,310,3.5,3.5,86,0.00,CLR,,0.06,0.0,WeatherDisplay:10.37,2013-03-04 03:56:00,
2013-03-03 23:01:00,27.1,23.5,29.63,NW,306,3.5,3.5,86,0.00,CLR,,0.06,0.0,WeatherDisplay:10.37,2013-03-04 04:01:00,
2013-03-03 23:06:00,27.1,23.5,29.63,WNW,300,5.8,5.8,86,0.00,CLR,,0.06,0.0,WeatherDisplay:10.37,2013-03-04 04:06:00,
2013-03-03 23:11:00,27.1,23.5,29.63,WNW,285,6.9,6.9,86,0.00,CLR,,0.06,0.0,WeatherDisplay:10.37,2013-03-04 04:11:00,
2013-03-03 23:16:00,27.1,23.5,29.64,NW,318,3.5,3.5,86,0.00,CLR,,0.06,0.0,WeatherDisplay:10.37,2013-03-04 04:16:00,
2013-03-03 23:21:00,27.1,23.5,29.64,WNW,300,3.5,3.5,86,0.00,CLR,,0.06,0.0,WeatherDisplay:10.37,2013-03-04 04:21:00,
2013-03-03 23:26:00,27.1,23.5,29.64,West,279,3.0,3.0,86,0.00,CLR,,0.06,0.0,WeatherDisplay:10.37,2013-03-04 04:26:00,
2013-03-03 23:31:00,27.0,23.4,29.63,WNW,300,1.1,1.1,86,0.00,CLR,,0.06,0.0,WeatherDisplay:10.37,2013-03-04 04:31:00,
2013-03-03 23:36:00,27.0,23.4,29.63,WNW,288,11.5,11.5,86,0.00,CLR,,0.06,0.0,WeatherDisplay:10.37,2013-03-04 04:36:00,
2013-03-03 23:41:00,26.9,23.3,29.63,WNW,292,4.0,5.0,86,0.00,CLR,,0.06,0.0,WeatherDisplay:10.37,2013-03-04 04:41:00,
2013-03-03 23:46:00,26.9,23.3,29.63,NNW,344,5.8,5.8,86,0.00,CLR,,0.06,0.0,WeatherDisplay:10.37,2013-03-04 04:46:00,
2013-03-03 23:51:00,26.9,23.3,29.63,WNW,298,10.4,10.4,86,0.00,CLR,,0.06,0.0,WeatherDisplay:10.37,2013-03-04 04:51:00,
2013-03-03 23:56:00,26.9,23.3,29.63,North,355,5.8,5.8,86,0.00,CLR,,0.06,0.0,WeatherDisplay:10.37,2013-03-04 04:56:00,